Regional Weather Roundup
Issued by NWS

Home | Current Version | Previous Version | Graphics & Text | Print | Product List | Glossary On
Versions: 1 2 3 4 5 6 7 8 9 10 11 12 13 14 15 16 17 18 19 20 21 22 23 24 25 26 27 28 29 30 31 32 33 34 35 36 37 38 39 40 41 42 43 44 45 46 47 48 49 50
000
ASUS43 KFSD 162210
RWRSD

WEATHER ROUNDUP FOR SOUTH DAKOTA
NATIONAL WEATHER SERVICE SIOUX FALLS SD
500 PM CDT WED AUG 16 2017

NOTE: "FAIR" INDICATES FEW OR NO CLOUDS BELOW 12,000 FEET WITH NO
SIGNIFICANT WEATHER AND/OR OBSTRUCTIONS TO VISIBILITY.


SDZ001>005-009-010-012>017-162300-
NORTHWEST AND NORTH CENTRAL SOUTH DAKOTA

CITY           SKY/WX    TMP DP  RH WIND       PRES   REMARKS
BUFFALO          N/A     81  47  30 CALM      29.91F
FAITH            N/A     78  48  34 N14       29.95F
MOBRIDGE       CLOUDY    73  62  68 N13       29.88F
$$

SDZ012>016-024>037-041>051-057-063-072>074-162300-
SOUTHWEST AND SOUTH CENTRAL SOUTH DAKOTA

CITY           SKY/WX    TMP DP  RH WIND       PRES   REMARKS
RAPID CTY ARPT CLOUDY    80  47  31 NW13      29.99F
PIERRE         CLOUDY    69  59  70 N13       29.88F
CUSTER         CLOUDY    67  43  41 SE8       30.11R
PHILIP         CLOUDY    81  51  35 N13       29.92F
PINE RIDGE     MOSUNNY   77  52  41 N5        30.00S
SPEARFISH      FAIR      77  45  31 E6        30.03F
WINNER         CLOUDY    66  63  90 NW12      29.90S
$$

SDZ004>011-016>023-039-040-162300-
NORTHEAST SOUTH DAKOTA

CITY           SKY/WX    TMP DP  RH WIND       PRES   REMARKS
ABERDEEN       LGT RAIN  68  66  93 N17       29.81F
WATERTOWN      LGT RAIN  67  66  97 NE7       29.77F
BROOKINGS      HVY RAIN  66  65  96 N8        29.75F
SISSETON         N/A     68  68 100 N7        29.78F
$$

SDZ017-020-022-023-036>040-048>070-162300-
SOUTHEAST SOUTH DAKOTA

CITY           SKY/WX    TMP DP  RH WIND       PRES   REMARKS
SIOUX FALLS    LGT RAIN  68  68 100 NW14      29.72F
HURON          LGT RAIN  67  66  97 NW12      29.79S
CHAMBERLAIN    LGT RAIN  65  65 100 W12G17    29.86S
MITCHELL       RAIN      67  66  97 NW13G21   29.79F FOG
YANKTON        CLOUDY    68  64  87 W14G23    29.78S
$$

ABBREVIATIONS USED IN REMARKS
   TC - TEMPERATURE IN CELSIUS
  WCI - WIND CHILL INDEX
   HX - HEAT INDEX
  VSB - VISIBILITY





USA.gov is the U.S. government's official web portal to all federal, state and local government web resources and services.